星链-32247 (STARLINK-32247)

导读 | 星芒AI

STARLINK-32247 是 SpaceX Starlink 卫星互联网项目中的一颗低轨卫星,属于第三代星链卫星(v1.5 或 v2 架构)。它运行在约 550 公里的近地轨道上,旨在为全球用户提供高速互联网服务。该卫星配备了先进的相控阵天线和激光通信系统,以提升网络性能和连接稳定性。作为 Starlink 项目的一部分,STARLINK-32247 有助于扩大覆盖范围,特别是在偏远和网络基础设施薄弱的地区。

基本信息
目录编号:
60446
目录名称:
STARLINK-32247
国际标识:
2024-144X
轨道中心:
EARTH
卫星名称:
星链-32247 (STARLINK-32247)
卫星全名:
星链-32247 (STARLINK-32247)
卫星状态:
在轨 (已飞行495 天)
发射日期:
2024-08-12 UTC
国别 :
美国 (US)
星等 :
--
轨道信息
数据来源 国际轨道数据 AOE轨道数据
星历时间 2025-12-19T16:24:25+0800
22小时前
查看轨道信息
2025-12-16T13:00:00+0800
4天前
查看轨道信息
半长轴 6853.389km 6853.373km
偏心率 0.0001521 0.0001376
轨道倾角 53.159° 53.159°
近地点辐角 94.835° 80.975°
升交点赤经 219.874° 234.469°
平近点角 265.282° 241.396°
近地点 474.209km 474.294km
远地点 476.295km 476.182km
周期 94.106分钟 94.106分钟
每日圈数 15.301877 15.30193
详细信息
卫星平台:
Starlink v2.0 mini
运营商:
太空探索技术公司
运营商所在国:
美国
制造商(研发单位):
太空探索技术公司
制造商所在国:
美国
使用方式:
暂无
卫星简介
星链(Starlink)计划是由太空探索技术公司(SpaceX)提出的一个巨型低轨卫星互联网星座项目,计划在2019年至2024年间在太空搭建由约1.2万颗卫星组成的“星链”网络,其中1584颗将部署在地球上空550千米处的近地轨道,并从2020年开始工作。该卫星仍在工作。
2D轨道图
3D轨道图
轨道高度分析图
轨道倾角分析图
轨道综合分析图
查看轨道综合分析图